Find WHDW 19-07

NORAD ID: 67528 Int'l Des: 2026-013 Owner: ZXW Country: CN Constellation: xingwang operational
LEOCIRCULAR

Aktuelle Ansicht

3D-Globus wird geladen...

Über WHDW 19-07

Beschreibung wird geladen...

Nächste Überflüge

Passes for default location (London). Set your location on the main map for personalized predictions.

Höhenverlauf

Loading altitude history...

Zweizeiliger Elementsatz

1 67528U 26013G 26146.23168233 -.00000074 00000-0 10880-3 0 9999
2 67528 50.0044 74.1471 0000930 31.2167 328.8760 13.29328113 17138
Epoch: 26. Mai 2026 • Age: 16 hours

Aktueller Status

Höhe 1160.4 km
Geschwindigkeit 7.27 km/s
Subsatellitenpunkt -33.89°S, 84.54°E
Startdatum 19. Jan. 2026
Alter 0.3 years
Typ other

Technische Details

Klassifizierung Payload
Masse 800.00 kg
Trockenmasse 800.00 kg
Gesamtmasse 800.00 kg
Länge 3.00 m
Durchmesser 1.00 m
Spannweite 10.00 m
Form Box + 2 Pan
Hersteller YINNT
Bus-Typ Xingwang Y
Phasenstatus In Orbit
Besitzer/Staat ZXW/CN

Most Searched